Location: Dürabuch
(48.2640°N, 11.2185°E)
Time: 19:43:11
(UTC+00:00)

CZ-2D R/B - Pass Details

Date: 26 May 2025
Orbit: 790 x 841 km, 98.8° (Epoch: 16 June)

Event Time Altitude Azimuth Distance (km) Brightness Sun altitude
Rises 00:56:59 0° 21° (NNE) 3,409 7.2 -16.7°
Reaches altitude 10° 00:59:34 10° 30° (NNE) 2,470 6.0 -16.5°
Maximum altitude 01:04:35 36° 96° (E) 1,312 3.4 -16.2°
Enters shadow 01:09:14 12° 161° (SSE) 2,334 4.1 -15.8°
